This demonstration page uses our WeatherBlox Daily Observations layout. Learn more.

Left ArrowRight Arrow

Hourly Observations for July 30, 2017

Temp ( °F °C ) Dew Point ( °F °C ) Humidity (%) Winds ( mph kmh ) Pressure ( in mb ) Visibility ( mi km ) Precip ( " mm )
12:53 am 00:53 Clear 72 22.2 63 17.2 73 73 SE 7 11 30.12 1020 10 16 0.00 0.00
1:53 am 01:53 Mostly Clear 72 22.2 63 17.2 73 73 SE 8 13 30.12 1020 10 16 0.00 0.00
2:53 am 02:53 Cloudy 70 21.1 64 17.8 82 82 S 7 11 30.13 1020 10 16 0.00 0.00
3:53 am 03:53 Cloudy 70 21.1 64 17.8 82 82 SE 9 15 30.12 1020 10 16 0.00 0.03
4:53 am 04:53 Cloudy 70 21.1 63 17.2 79 79 SSE 7 11 30.12 1020 10 16 0.00 0.00
5:53 am 05:53 Cloudy 69 20.6 63 17.2 81 81 SSE 8 13 30.13 1020 10 16 0.00 0.00
6:53 am 06:53 Cloudy 68 20 63 17.2 84 84 SSE 7 11 30.15 1021 10 16 0.01 0.25
7:53 am 07:53 Cloudy with Light Rain 67 19.4 63 17.2 87 87 ESE 3 6 30.18 1022 10 16 0.00 0.03
8:53 am 08:53 Cloudy with Light Rain 67 19.4 62 16.7 84 84 S 8 13 30.20 1023 7 11 0.02 0.51
9:43 am 09:43 Cloudy with Rain 64 18 63 17 94 94 SSW 6 9 30.21 1023 2 3 0.00 0.00
9:53 am 09:53 Cloudy with Heavy Rain 65 18.3 62 16.7 90 90 SSW 6 9 30.23 1024 1 2 0.13 3.30
10:12 am 10:12 Cloudy with Heavy Rain 64 18 61 16 88 88 S 9 15 30.18 1022 2 3 0.00 0.00
10:19 am 10:19 Cloudy with Heavy Rain 64 17.8 60 15.6 87 87 S 7 11 30.21 1023 1 2 0.16 4.06
10:35 am 10:35 Cloudy with Rain 65 18.3 61 16.1 87 87 S 5 7 30.21 1023 3 5 0.23 5.84
10:53 am 10:53 Cloudy with Light Rain 65 18.3 62 16.7 90 90 S 8 13 30.22 1023 9 14 0.25 6.35
11:53 am 11:53 Cloudy 67 19.4 62 16.7 84 84 S 7 11 30.22 1023 10 16 0.02 0.51
12:53 pm 12:53 Cloudy with Light Rain 67 19.4 62 16.7 84 84 SSE 7 11 30.22 1023 8 13 0.01 0.25
1:53 pm 13:53 Cloudy 68 20 62 16.7 81 81 SSW 6 9 30.20 1023 10 16 0.01 0.25
2:53 pm 14:53 Mostly Sunny 72 22.2 63 17.2 73 73 SSE 13 20 30.19 1022 10 16 0.00 0.03
3:53 pm 15:53 Sunny 73 22.8 58 14.4 59 59 S 8 13 30.17 1022 10 16 0.00 0.00
4:53 pm 16:53 Sunny 76 24.4 60 15.6 58 58 SSE 9 15 30.15 1021 10 16 0.00 0.00
5:53 pm 17:53 Sunny 75 23.9 62 16.7 64 64 SE 8 13 30.14 1021 10 16 0.00 0.00
6:53 pm 18:53 Sunny 75 23.9 62 16.7 64 64 SE 9 15 30.13 1020 10 16 0.00 0.00
7:53 pm 19:53 Mostly Sunny 73 22.8 61 16.1 66 66 SE 7 11 30.14 1021 10 16 0.00 0.00
8:53 pm 20:53 Clear 70 21.1 62 16.7 76 76 SE 6 9 30.15 1021 10 16 0.00 0.00
9:53 pm 21:53 Clear 69 20.6 62 16.7 78 78 ESE 3 6 30.15 1021 10 16 0.00 0.00
10:53 pm 22:53 Clear 69 20.6 62 16.7 78 78 ESE 6 9 30.15 1021 10 16 0.00 0.00
11:53 pm 23:53 Mostly Clear 69 20.6 61 16.1 76 76 SE 12 19 30.14 1021 10 16 0.00 0.00

Powered by AerisWeather